Погода в Горелках

Россия / Тульская область     54°15′26″N   37°36′59″E
темп.,
°C
ветер,
м/с
пор.,
м/с
влажн.,
%
обл.,
%
осадки,
мм/ч
давл.,
гПа
погр.,
м
11 апреля, вс
вс1100:00+3ююз33620 0.0 102755
03:00+2юз23660 0.0 102733
06:00+2юз22700 0.0 102911
09:00+7юз22550 0.0 1030237
12:00+12ююз11420 0.0 1030790
15:00+14ссв11370 0.0 10301128
18:00+13всв23445 0.0 1030295
21:00+9в235622 0.0 103137
12 апреля, пн
пн1200:00+7в3466100 0.0 103260
03:00+5всв3769100 0.0 1033134
06:00+5всв41369100 0.0 1032315
09:00+8всв61450100 0.0 1031539
12:00+9в61173100 0.1 1030561
15:00+12в6869100 0.1 1029690
18:00+13в497397 0.0 1027596
21:00+10в41088100 0.0 1027210
13 апреля, вт
вт1300:00+9вюв4108799 0.0 1026196
03:00+8юв358452 0.0 102685
06:00+7юв3582100 0.0 102678
09:00+12ююв4958100 0.0 1026312
12:00+18ююв5840100 0.0 1025893
15:00+19ююв573341 0.0 10241732
18:00+17юв373811 0.0 1023308
21:00+13юв365396 0.0 102498
14 апреля, ср
ср1400:00+12юв412575 0.0 1023268
03:00+10ююв3966100 0.0 1023162
06:00+9юв3569100 0.0 102280
09:00+12юв4854100 0.0 1022283
12:00+17юв57375 0.0 1020797
15:00+19юв6829100 0.0 10191883
18:00+17юв483861 0.0 1018471
21:00+13вюв3548100 0.0 101867
15 апреля, чт
чт1500:00+11юв2355100 0.0 101856
03:00+9ю1163100 0.0 101814
06:00+9вюв2365100 0.0 101735
09:00+13ююв2455100 0.0 1017217
12:00+16юв2245100 0.0 1017486
15:00+18в2237100 0.0 10161218
18:00+16вюв2246100 0.0 101660
21:00+13св2254100 0.0 101628